Location: Unspecified
(50.7693°N, 0.0000°E)
Time: 19:10:21
(UTC+00:00)

Vanguard 2 - Pass Details

Date: 23 June 2019
Orbit: 553 x 2938 km, 32.9° (Epoch: 15 July)

Event Time Altitude Azimuth Distance (km) Brightness Sun altitude
Rises 12:23:52 0° 252° (WSW) 4,155 11.5 62.3°
Reaches altitude 10° 12:27:25 10° 235° (SW) 3,559 11.4 62.2°
Maximum altitude 12:33:28 19° 195° (SSW) 3,487 11.7 62.0°
Drops below altitude 10° 12:41:24 10° 157° (SSE) 4,837 12.1 61.6°
Sets 12:47:33 0° 143° (SE) 6,260 12.4 61.3°
